When you browse on this site, cookies collect data to enhance your experience and personalize the content and advertising you see.
Visit our Privacy Policy to learn more. By continuing to use the site, you agree to this use of cookies and data.
  • In Schweiz
  • Länderverzeichnis
  • Für 7 Tage
  • Wassertemperatur
  • Wetterkarte
  • Widgets
  • user-avatar
    Anmelden

    Stündliche Wetter Armagh

    Heute, 10 April, Freitag

    Zeit Temperatur Niederschläge Wind Luftdruck Luftfeuchtigkeit
    00:00 +9°C° 0 mm 1 m/S 762 mmHg 95%
    01:00 +9°C° 0 mm 1 m/S 762 mmHg 94%
    02:00 +9°C° 0 mm 1 m/S 761 mmHg 94%
    03:00 +9°C° 0 mm 1 m/S 761 mmHg 94%
    04:00 +9°C° 0 mm 1 m/S 761 mmHg 93%
    05:00 +9°C° 0 mm 1 m/S 761 mmHg 93%
    06:00 +9°C° 0 mm 1 m/S 761 mmHg 93%
    07:00 +11°C° 0 mm 1 m/S 761 mmHg 90%
    08:00 +12°C° 0 mm 1 m/S 761 mmHg 87%
    09:00 +14°C° 0 mm 2 m/S 761 mmHg 85%
    10:00 +15°C° 0 mm 2 m/S 761 mmHg 82%
    11:00 +16°C° 0 mm 2 m/S 761 mmHg 79%
    12:00 +17°C° 0 mm 2 m/S 761 mmHg 77%
    13:00 +17°C° 0 mm 2 m/S 761 mmHg 77%
    14:00 +17°C° 0 mm 2 m/S 761 mmHg 77%
    15:00 +17°C° 0 mm 2 m/S 760 mmHg 78%
    16:00 +17°C° 0.1 mm 2 m/S 760 mmHg 82%
    17:00 +16°C° 0.1 mm 2 m/S 760 mmHg 86%
    18:00 +15°C° 0.1 mm 1 m/S 760 mmHg 90%
    19:00 +14°C° 0.2 mm 1 m/S 760 mmHg 91%
    20:00 +14°C° 0.2 mm 1 m/S 761 mmHg 92%
    21:00 +13°C° 0.2 mm 1 m/S 761 mmHg 93%
    22:00 +12°C° 0 mm 1 m/S 761 mmHg 93%
    23:00 +12°C° 0 mm 1 m/S 761 mmHg 94%

    Morgen, 11 April, Samstag

    Zeit Temperatur Niederschläge Wind Luftdruck Luftfeuchtigkeit
    00:00 +12°C° 0 mm 1 m/S 761 mmHg 94%
    01:00 +11°C° 0 mm 1 m/S 761 mmHg 94%
    02:00 +11°C° 0 mm 1 m/S 761 mmHg 94%
    03:00 +10°C° 0 mm 1 m/S 761 mmHg 95%
    04:00 +11°C° 0 mm 1 m/S 761 mmHg 95%
    05:00 +11°C° 0 mm 1 m/S 761 mmHg 95%
    06:00 +11°C° 0 mm 1 m/S 761 mmHg 96%
    07:00 +10°C° 0 mm 2 m/S 762 mmHg 93%
    08:00 +12°C° 0 mm 2 m/S 762 mmHg 90%
    09:00 +12°C° 0 mm 3 m/S 762 mmHg 88%
    10:00 +13°C° 0 mm 2 m/S 762 mmHg 83%
    11:00 +14°C° 0 mm 2 m/S 763 mmHg 79%
    12:00 +14°C° 0 mm 2 m/S 763 mmHg 74%
    13:00 +15°C° 0 mm 2 m/S 763 mmHg 69%
    14:00 +16°C° 0 mm 2 m/S 762 mmHg 64%
    15:00 +17°C° 0 mm 2 m/S 762 mmHg 59%
    16:00 +16°C° 0 mm 2 m/S 762 mmHg 63%
    17:00 +15°C° 0 mm 2 m/S 762 mmHg 67%
    18:00 +14°C° 0 mm 2 m/S 762 mmHg 71%
    19:00 +12°C° 0 mm 2 m/S 761 mmHg 72%
    20:00 +10°C° 0 mm 1 m/S 761 mmHg 72%
    21:00 +8°C° 0 mm 1 m/S 761 mmHg 73%
    22:00 +8°C° 0 mm 1 m/S 761 mmHg 74%
    23:00 +8°C° 0 mm 1 m/S 760 mmHg 75%

    übermorgen, 12 April, Sonntag

    Zeit Temperatur Niederschläge Wind Luftdruck Luftfeuchtigkeit
    00:00 +8°C° 0 mm 1 m/S 760 mmHg 76%
    01:00 +8°C° 0 mm 2 m/S 759 mmHg 77%
    02:00 +8°C° 0 mm 2 m/S 758 mmHg 78%
    03:00 +8°C° 0 mm 2 m/S 757 mmHg 79%
    04:00 +8°C° 0.2 mm 2 m/S 756 mmHg 82%
    05:00 +8°C° 0.2 mm 3 m/S 756 mmHg 85%
    06:00 +8°C° 0.2 mm 3 m/S 755 mmHg 89%
    07:00 +8°C° 0.4 mm 2 m/S 754 mmHg 91%
    08:00 +8°C° 0.4 mm 2 m/S 754 mmHg 93%
    09:00 +8°C° 0.4 mm 2 m/S 753 mmHg 95%
    10:00 +8°C° 0.9 mm 2 m/S 753 mmHg 95%
    11:00 +9°C° 0.9 mm 1 m/S 753 mmHg 95%
    12:00 +9°C° 0.9 mm 1 m/S 752 mmHg 96%
    13:00 +8°C° 1.7 mm 2 m/S 752 mmHg 96%
    14:00 +8°C° 1.7 mm 3 m/S 751 mmHg 96%
    15:00 +6°C° 1.7 mm 4 m/S 751 mmHg 96%
    16:00 +7°C° 0.6 mm 5 m/S 751 mmHg 96%
    17:00 +7°C° 0.6 mm 5 m/S 751 mmHg 96%
    18:00 +7°C° 0.6 mm 5 m/S 751 mmHg 96%
    19:00 +8°C° 0.1 mm 6 m/S 751 mmHg 96%
    20:00 +8°C° 0.1 mm 6 m/S 752 mmHg 95%
    21:00 +8°C° 0.1 mm 6 m/S 753 mmHg 94%
    22:00 +6°C° 0 mm 7 m/S 754 mmHg 92%
    23:00 +6°C° 0 mm 7 m/S 754 mmHg 90%

    13 April, Montag

    Zeit Temperatur Niederschläge Wind Luftdruck Luftfeuchtigkeit
    00:00 +5°C° 0 mm 8 m/S 755 mmHg 88%
    01:00 +5°C° 0 mm 7 m/S 756 mmHg 86%
    02:00 +4°C° 0 mm 7 m/S 757 mmHg 84%
    03:00 +4°C° 0 mm 7 m/S 757 mmHg 82%
    04:00 +4°C° 0 mm 7 m/S 758 mmHg 83%
    05:00 +4°C° 0 mm 6 m/S 759 mmHg 83%
    06:00 +3°C° 0 mm 6 m/S 760 mmHg 84%
    07:00 +4°C° 0 mm 7 m/S 761 mmHg 80%
    08:00 +5°C° 0 mm 7 m/S 761 mmHg 76%
    09:00 +6°C° 0 mm 8 m/S 762 mmHg 72%
    10:00 +6°C° 0 mm 7 m/S 763 mmHg 69%
    11:00 +8°C° 0 mm 7 m/S 763 mmHg 65%
    12:00 +8°C° 0 mm 7 m/S 764 mmHg 61%
    13:00 +8°C° 0 mm 7 m/S 764 mmHg 61%
    14:00 +9°C° 0 mm 6 m/S 764 mmHg 61%
    15:00 +9°C° 0 mm 6 m/S 764 mmHg 60%
    16:00 +8°C° 0 mm 5 m/S 764 mmHg 64%
    17:00 +8°C° 0 mm 5 m/S 764 mmHg 67%
    18:00 +7°C° 0 mm 4 m/S 764 mmHg 70%
    19:00 +5°C° 0 mm 4 m/S 764 mmHg 74%
    20:00 +4°C° 0 mm 4 m/S 765 mmHg 79%
    21:00 +2°C° 0 mm 3 m/S 765 mmHg 83%
    22:00 +2°C° 0 mm 3 m/S 765 mmHg 85%
    23:00 +1°C° 0 mm 3 m/S 765 mmHg 88%

    14 April, Dienstag

    Zeit Temperatur Niederschläge Wind Luftdruck Luftfeuchtigkeit
    00:00 +1°C° 0 mm 3 m/S 765 mmHg 90%
    01:00 +1°C° 0 mm 2 m/S 765 mmHg 92%
    02:00 +1°C° 0 mm 2 m/S 764 mmHg 93%
    03:00 +1°C° 0 mm 2 m/S 764 mmHg 94%
    04:00 +1°C° 0 mm 2 m/S 764 mmHg 94%
    05:00 -1°C° 0 mm 2 m/S 764 mmHg 94%
    06:00 -1°C° 0 mm 2 m/S 764 mmHg 94%
    07:00 +2°C° 0 mm 2 m/S 763 mmHg 86%
    08:00 +3°C° 0 mm 3 m/S 763 mmHg 78%
    09:00 +5°C° 0 mm 3 m/S 763 mmHg 70%
    10:00 +8°C° 0 mm 3 m/S 763 mmHg 66%
    11:00 +8°C° 0 mm 4 m/S 762 mmHg 63%
    12:00 +10°C° 0 mm 4 m/S 762 mmHg 59%
    13:00 +10°C° 0 mm 4 m/S 761 mmHg 58%
    14:00 +10°C° 0 mm 4 m/S 761 mmHg 58%
    15:00 +10°C° 0 mm 4 m/S 760 mmHg 57%
    16:00 +10°C° 0 mm 4 m/S 760 mmHg 61%
    17:00 +9°C° 0 mm 3 m/S 760 mmHg 65%
    18:00 +8°C° 0 mm 3 m/S 759 mmHg 70%
    19:00 +6°C° 0 mm 2 m/S 759 mmHg 75%
    20:00 +4°C° 0 mm 2 m/S 759 mmHg 79%
    21:00 +3°C° 0 mm 1 m/S 760 mmHg 84%
    22:00 +2°C° 0 mm 2 m/S 759 mmHg 86%
    23:00 +2°C° 0 mm 2 m/S 759 mmHg 87%

    15 April, Mittwoch

    Zeit Temperatur Niederschläge Wind Luftdruck Luftfeuchtigkeit
    00:00 +2°C° 0 mm 2 m/S 759 mmHg 88%
    01:00 +2°C° 0 mm 2 m/S 759 mmHg 89%
    02:00 +2°C° 0 mm 2 m/S 759 mmHg 91%
    03:00 +2°C° 0 mm 2 m/S 758 mmHg 93%
    04:00 +2°C° 0 mm 2 m/S 758 mmHg 93%
    05:00 +2°C° 0 mm 2 m/S 758 mmHg 93%
    06:00 +1°C° 0 mm 2 m/S 758 mmHg 93%
    07:00 +2°C° 0 mm 3 m/S 758 mmHg 85%
    08:00 +4°C° 0 mm 3 m/S 758 mmHg 77%
    09:00 +6°C° 0 mm 4 m/S 758 mmHg 68%
    10:00 +7°C° 0 mm 4 m/S 758 mmHg 65%
    11:00 +10°C° 0 mm 4 m/S 758 mmHg 62%
    12:00 +11°C° 0 mm 4 m/S 758 mmHg 59%
    13:00 +11°C° 0 mm 4 m/S 757 mmHg 60%
    14:00 +11°C° 0 mm 4 m/S 757 mmHg 60%
    15:00 +11°C° 0 mm 3 m/S 757 mmHg 61%
    16:00 +11°C° 0 mm 3 m/S 757 mmHg 65%
    17:00 +10°C° 0 mm 3 m/S 757 mmHg 69%
    18:00 +9°C° 0 mm 2 m/S 756 mmHg 74%
    19:00 +8°C° 0 mm 2 m/S 757 mmHg 75%
    20:00 +6°C° 0 mm 2 m/S 757 mmHg 76%
    21:00 +4°C° 0 mm 2 m/S 757 mmHg 77%
    22:00 +4°C° 0 mm 2 m/S 757 mmHg 79%
    23:00 +3°C° 0 mm 2 m/S 757 mmHg 81%
    Mehr zeigen